Satellite: RS-30
Catalog number: 32953

Epoch time:      10203.54463007
Element set:     889
Inclination:      082.5009 deg
RA of node:       007.6863 deg

Eccentricity: 0.0019380
Arg of perigee: 028.2263 deg
Mean anomaly: 331.9863 deg
Mean motion: 12.43006625 rev/day

Decay rate:        1.0e-07 rev/day^2
Epoch rev:            9813
Checksum:              278

Satellite: TACSAT-3
Catalog number: 35001
Epoch time: 10202.89049264
Element set: 0340

Inclination:      040.4564 deg
RA of node:       005.6063 deg

Eccentricity: 0.0022249
Arg of perigee: 267.5387 deg
Mean anomaly: 092.2881 deg
Mean motion: 15.42063997 rev/day

Decay rate:      3.670e-05 rev/day^2
Epoch rev:           06599
Checksum:              296

Satellite: PHARMSAT
Catalog number: 35002

Epoch time:      10203.80383344
Element set:     321
Inclination:      040.4702 deg
RA of node:       357.9937 deg

Eccentricity: 0.0025401
Arg of perigee: 277.0448 deg
Mean anomaly: 082.7477 deg
Mean motion: 15.42566227 rev/day

Decay rate:      3.056e-05 rev/day^2
Epoch rev:            6615
Checksum:              274

Satellite: HAWKSAT1
Catalog number: 35003

Epoch time:      10203.83214184
Element set:     344
Inclination:      040.4610 deg
RA of node:       351.5551 deg

Eccentricity: 0.0023527
Arg of perigee: 292.6975 deg
Mean anomaly: 067.1353 deg
Mean motion: 15.45933564 rev/day

Decay rate:      6.987e-05 rev/day^2
Epoch rev:            6623
Checksum:              284

Satellite: CP6
Catalog number: 35004

Epoch time:      10203.74424217
Element set:     340
Inclination:      040.4609 deg
RA of node:       350.8789 deg

Eccentricity: 0.0022413
Arg of perigee: 294.7955 deg
Mean anomaly: 065.0532 deg
Mean motion: 15.46861821 rev/day

Decay rate:      8.347e-05 rev/day^2
Epoch rev:            6622
Checksum:              287

Satellite: AEROCUB3
Catalog number: 35005

Epoch time:      10202.83023761
Element set:     386
Inclination:      040.4686 deg
RA of node:       352.1398 deg

Eccentricity: 0.0020186
Arg of perigee: 308.5721 deg
Mean anomaly: 051.3289 deg
Mean motion: 15.53219826 rev/day

Decay rate:     2.6795e-04 rev/day^2
Epoch rev:            6613
Checksum:              292

Satellite: CASTOR
Catalog number: 35694

Epoch time:      10203.73087050
Element set:     579
Inclination:      051.6314 deg
RA of node:       008.7596 deg

Eccentricity: 0.0003721
Arg of perigee: 308.6987 deg
Mean anomaly: 051.3827 deg
Mean motion: 16.10734995 rev/day
Decay rate: 1.67107e-03 rev/day^2

Epoch rev:            5677
Checksum:              317

Satellite: METEOR-M
Catalog number: 35865

Epoch time:      10203.74231965
Element set:     494
Inclination:      098.7557 deg
RA of node:       257.2838 deg

Eccentricity: 0.0001712
Arg of perigee: 277.7439 deg
Mean anomaly: 082.3511 deg
Mean motion: 14.21830954 rev/day

Decay rate:       1.76e-06 rev/day^2
Epoch rev:            4377
Checksum:              315

Satellite: RS-38
Catalog number: 35869

Epoch time:      10203.70996592
Element set:     503
Inclination:      098.7541 deg
RA of node:       257.2860 deg

Eccentricity: 0.0003887
Arg of perigee: 266.5625 deg
Mean anomaly: 093.5095 deg
Mean motion: 14.21985499 rev/day

Decay rate:       1.77e-06 rev/day^2
Epoch rev:            4377
Checksum:              354

/EX


Via the Keps mailing list courtesy of AMSAT-NA http://amsat.org/mailman/listinfo/keps

The following information is a reminder of your current mailing list subscription:

You are subscribed to the following list:

[RADIOCOMM LIST]

using the following email:

example@example.com

You may automatically unsubscribe from this list at any time by visiting the following URL:

<http://www.aus-city.com/cgi-bin/dada/mail.cgi/u/RADIOCOMM_LIST/example/example.com/>

If the above URL is inoperable, make sure that you have copied the entire address. Some mail readers will wrap a long URL and thus break this automatic unsubscribe mechanism.

You may also change your subscription by visiting this list's main screen:

<http://www.aus-city.com/cgi-bin/dada/mail.cgi/list/RADIOCOMM_LIST>

If you're still having trouble, please contact the list owner at:

<mailto:list.admin@aus-city.com>

The following physical address is associated with this mailing list:

http://www.aus-city.com